Вернуться в каталог

STARLINK-5328

АктивенСвязьVLEO
NORAD 55657·PAYLOAD·🇺🇸 United States

Запущен Feb 17, 2023 с Vandenberg Space Force Base

Loading…

Ближайшие Пролёты (ближайшие 24 часа)

TLE

СвежийSource: CelesTrak SupGP

Эпоха: Sep 15, 2026, 02:42 UTC

1 55657C 23021AF  26258.11298611 -.00035584  00000+0 -29825-2 0  2580
2 55657  70.0023  47.0124 0003007 269.7958 114.9515 14.98343271    15

Отслеживайте STARLINK-5328 в реальном времени с AllMySat

Download on the App Store